User: anonymous   Login
Location: Caltech
(34.1382°N, 118.1253°W)
Time: 06:17:01
(UTC-07:00)
Language:

Iridium 21 - Orbit

View from above orbital plane
View from above orbital plane
View from above satellite
View from above satellite

Ground track
Ground track

The orbit data is extracted from the following two-line orbital elements,

1 25778U 99032B   17086.55908887 -.00000046 +00000-0 -23611-4 0  9993
2 25778 086.3926 258.0673 0002086 085.6655 274.4779 14.34213844936335
Epoch (UTC): 27 March 2017 13:25:05
Eccentricity: 0.0002086
inclination: 86.3926°
perigee height: 776 km
apogee height: 779 km
right ascension of ascending node: 258.0673°
argument of perigee: 85.6655°
revolutions per day: 14.34213844
mean anomaly at epoch: 274.4779°
orbit number at epoch: 93633

The dashed part of the orbit path shows where the satellite is in the earth's shadow,  

DLR